sat.trackr.live / text

‹ back to catalog

STARLINK-3226

NORAD 49740 · 2021-115S

PAYLOAD ACTIVE UNKNOWN

§ Identity

Operator
Country
US
Launch date
2021-12-02
Launch site
AFETR
Launch vehicle
Mass (kg)
RCS (m²)

Purposes: comms

External: N2YO · Heavens-Above · Gunter

§ Orbital elements

Epoch: 2026-05-24T19:07:37.431264Z

Period
95.44 min
Inclination
53.2145°
Eccentricity
0.0001512
Mean motion
15.08847744 rev/d
Perigee alt
538.7 km
Apogee alt
540.8 km
Semi-major
6,917.9 km
B*
-4.2081e-5
RAAN
167.4345°
Arg perigee
72.3263°
Mean anomaly
287.7895°
Rev number
24,702

§ Raw data

STARLINK-32261 49740U 21115S   26144.79696101 -.00000958  00000+0 -42081-4 0  99922 49740  53.2145 167.4345 0001512  72.3263 287.7895 15.08847744247027

JSON: /api/v1/satellites/49740 · /tle

For live sub-satellite position, see the globe view (requires WebGL).

§ Visibility from observer

Set your observer location to see the next 7 days of passes ≥ 10°. The values pass through the URL so the page stays shareable.

No JS? Fill the form by hand. The geolocation button needs JavaScript.